Date String (YYYY-MM-DD hh:mm:ss) UTC,Instrument flags,absolute air pressure of the measurement (hPa),sample flow rate (lpm),inlet stack bypass flow (lpm),air temperature of the measurement (°C),ambient temperature measured by the external sensor (°C),aerosol sample conditioner tube jacket temperature (°C),OPC LED temperature (°C),internal box temperature (°C),relative humidity of the measurement (%),span deviation,mass concentration of particles derived from Lorenz-Mie calculation of OPC scattering (μg/m³),mass concentration of particles derived from Lorenz-Mie calculation of OPC scattering (μg/m³),mass concentration of particles derived from Lorenz-Mie calculation of OPC scattering (μg/m³)
DateTimeUTC,F1_M11,P_M11,Q1_M11,Q2_M11,T1_M11,T2_M11,T3_M11,T4_M11,T5_M11,U1_M11,ZSPAN_M11,X0_M11,X2_M11,X1_M11
2023-10-30 21:00:00,SystemResetWarning,0834.0,5.01,000.00,025.7,025.0,000.0,033.9,027.2,10.0,0000.0,0008.13,0005.27,0004.96
2023-10-30 21:01:00,SystemResetWarning,0834.1,5.00,000.00,025.7,025.0,000.0,033.9,027.2,10.2,0000.0,0008.18,0005.26,0004.93
2023-10-30 21:02:00,SystemResetWarning,0834.1,4.99,000.00,025.7,025.0,000.0,034.0,027.1,10.0,0000.0,0008.09,0005.22,0004.90
2023-10-30 21:03:00,SystemResetWarning,0834.1,5.00,000.00,025.7,025.0,000.0,034.0,027.1,10.1,0000.0,0008.13,0005.26,0004.94
2023-10-30 21:04:00,SystemResetWarning,0834.1,5.01,000.00,025.7,025.0,000.0,034.0,027.2,10.3,0000.0,0008.17,0005.32,0004.98
2023-10-30 21:05:00,SystemResetWarning,0834.1,4.99,000.00,025.7,025.0,000.0,034.0,027.2,10.2,0000.0,0008.59,0005.36,0005.02
2023-10-30 21:06:00,SystemResetWarning,0834.1,4.99,000.00,025.7,025.0,000.0,034.0,027.2,10.1,0000.0,0008.63,0005.38,0005.04
2023-10-30 21:07:00,SystemResetWarning,0834.1,5.00,000.00,025.7,025.0,000.0,034.0,027.2,10.0,0000.0,0008.68,0005.40,0005.04
2023-10-30 21:08:00,SystemResetWarning,0834.1,5.01,000.00,025.7,025.0,000.0,034.0,027.2,10.1,0000.0,0008.60,0005.40,0005.06
2023-10-30 21:09:00,SystemResetWarning,0834.1,5.01,000.00,025.7,025.0,000.0,034.0,027.2,10.4,0000.0,0009.04,0005.41,0005.08
2023-10-30 21:10:00,SystemResetWarning,0834.1,4.98,000.00,025.7,025.0,000.0,034.0,027.2,10.3,0000.0,0009.06,0005.42,0005.08
2023-10-30 21:11:00,SystemResetWarning,0834.1,5.00,000.00,025.7,025.0,000.0,034.0,027.2,10.3,0000.0,0008.93,0005.42,0005.09
2023-10-30 21:12:00,SystemResetWarning,0834.1,5.02,000.00,025.7,025.0,000.0,034.0,027.1,10.4,0000.0,0008.84,0005.40,0005.10
2023-10-30 21:13:00,SystemResetWarning,0834.1,5.00,000.00,025.8,025.0,000.0,034.0,027.1,10.3,0000.0,0008.81,0005.39,0005.11
2023-10-30 21:14:00,SystemResetWarning,0834.0,4.99,000.00,025.8,025.0,000.0,034.0,027.2,10.1,0000.0,0008.83,0005.40,0005.11
2023-10-30 21:15:00,SystemResetWarning,0834.0,5.00,000.00,025.8,025.0,000.0,034.0,027.1,10.2,0000.0,0008.87,0005.39,0005.10
2023-10-30 21:16:00,SystemResetWarning,0834.0,5.01,000.00,025.8,025.0,000.0,034.0,027.1,10.0,0001.6,0008.54,0005.39,0005.11
2023-10-30 21:17:00,SystemResetWarning,0834.1,5.00,000.00,025.7,025.0,000.0,034.1,027.1,10.2,0002.9,0009.26,0005.40,0005.11
2023-10-30 21:18:00,SystemResetWarning,0834.2,4.99,000.00,025.7,025.0,000.0,034.1,027.1,10.2,0003.2,0009.46,0005.43,0005.12
2023-10-30 21:19:00,SystemResetWarning,0834.2,5.00,000.00,025.7,025.0,000.0,034.1,027.1,10.4,0003.2,0009.88,0005.43,0005.13
2023-10-30 21:20:00,SystemResetWarning,0834.4,4.99,000.00,025.7,024.9,000.0,034.0,027.1,10.5,0002.9,0009.66,0005.45,0005.14
2023-10-30 21:21:00,SystemResetWarning,0834.5,5.00,000.00,025.7,024.9,000.0,034.0,027.1,10.7,0002.8,0009.46,0005.46,0005.16
2023-10-30 21:22:00,SystemResetWarning,0834.2,5.01,000.00,025.7,024.9,000.0,034.0,027.1,10.5,0002.9,0009.40,0005.45,0005.17
2023-10-30 21:23:00,SystemResetWarning,0834.1,5.00,000.00,025.7,024.9,000.0,034.1,027.1,10.2,0003.0,0009.40,0005.47,0005.19
2023-10-30 21:24:00,SystemResetWarning,0834.1,5.00,000.00,025.8,024.9,000.0,034.1,027.1,10.1,0002.8,0009.38,0005.49,0005.20
2023-10-30 21:25:00,SystemResetWarning,0834.0,5.01,000.00,025.8,024.9,000.0,034.0,027.1,10.1,0002.7,0009.41,0005.51,0005.23
2023-10-30 21:26:00,SystemResetWarning,0834.0,5.00,000.00,025.8,024.9,000.0,034.0,027.1,10.2,0002.3,0009.34,0005.51,0005.25
2023-10-30 21:27:00,SystemResetWarning,0834.1,5.01,000.00,025.8,024.9,000.0,034.1,027.1,10.1,0002.0,0009.38,0005.53,0005.25
2023-10-30 21:28:00,SystemResetWarning,0834.1,5.01,000.00,025.8,024.9,000.0,034.1,027.2,10.4,0002.0,0008.80,0005.53,0005.26
2023-10-30 21:29:00,SystemResetWarning,0834.2,5.00,000.00,025.8,024.9,000.0,034.1,027.1,10.4,0002.2,0008.50,0005.55,0005.27
2023-10-30 21:30:00,SystemResetWarning,0834.2,4.99,000.00,025.8,024.9,000.0,034.1,027.1,10.2,0002.5,0008.02,0005.57,0005.29
2023-10-30 21:31:00,SystemResetWarning,0834.2,4.99,000.00,025.8,024.9,000.0,034.1,027.1,10.4,0002.7,0007.97,0005.55,0005.29
2023-10-30 21:32:00,SystemResetWarning,0834.1,4.99,000.00,025.8,024.9,000.0,034.1,027.1,10.5,0002.8,0007.95,0005.54,0005.29
2023-10-30 21:33:00,SystemResetWarning,0834.2,5.00,000.00,025.8,024.9,000.0,034.1,027.1,10.3,0003.1,0008.01,0005.55,0005.30
2023-10-30 21:34:00,SystemResetWarning,0834.2,5.00,000.00,025.8,024.9,000.0,034.1,027.1,10.5,0002.2,0008.09,0005.57,0005.31
2023-10-30 21:35:00,SystemResetWarning,0834.5,5.01,000.00,025.8,024.9,000.0,034.1,027.1,10.2,0001.8,0008.14,0005.59,0005.32
2023-10-30 21:36:00,SystemResetWarning,0834.2,5.00,000.00,025.8,024.9,000.0,034.1,027.1,10.3,0001.2,0008.18,0005.61,0005.33
2023-10-30 21:37:00,SystemResetWarning,0834.2,5.00,000.00,025.8,024.8,000.0,034.1,027.1,10.3,0001.9,0008.23,0005.61,0005.33
2023-10-30 21:38:00,SystemResetWarning,0834.2,4.99,000.00,025.8,024.8,000.0,034.1,027.1,10.1,0002.9,0008.34,0005.64,0005.34
2023-10-30 21:39:00,SystemResetWarning,0834.3,5.00,000.00,025.8,024.8,000.0,034.1,027.1,10.1,0003.3,0008.26,0005.62,0005.35
2023-10-30 21:40:00,SystemResetWarning,0834.6,5.01,000.00,025.8,024.8,000.0,034.1,027.1,10.3,0003.7,0008.27,0005.61,0005.36
2023-10-30 21:41:00,SystemResetWarning,0834.5,5.01,000.00,025.8,024.8,000.0,034.1,027.1,10.1,0003.7,0008.31,0005.63,0005.37
2023-10-30 21:42:00,SystemResetWarning,0834.3,4.98,000.00,025.8,024.8,000.0,034.1,027.1,10.2,0002.1,0008.35,0005.66,0005.39
2023-10-30 21:43:00,SystemResetWarning,0834.2,4.99,000.00,025.8,024.8,000.0,034.1,027.1,10.3,0001.5,0008.54,0005.72,0005.42
2023-10-30 21:44:00,SystemResetWarning,0834.4,5.02,000.00,025.8,024.8,000.0,034.1,027.1,10.5,0002.7,0008.65,0005.78,0005.45
2023-10-30 21:45:00,SystemResetWarning,0834.5,5.00,000.00,025.8,024.8,000.0,034.1,027.1,10.4,0000.0,0008.56,0005.77,0005.46
2023-10-30 21:46:00,SystemResetWarning,0834.3,4.99,000.00,025.8,024.8,000.0,034.1,027.1,10.3,0000.0,0008.53,0005.77,0005.47
2023-10-30 21:47:00,SystemResetWarning,0834.5,4.99,000.00,025.8,024.8,000.0,034.1,027.2,10.3,0000.0,0008.48,0005.78,0005.49
2023-10-30 21:48:00,SystemResetWarning,0834.5,5.01,000.00,025.8,024.8,000.0,034.1,027.1,10.3,0000.0,0008.46,0005.81,0005.52
2023-10-30 21:49:00,SystemResetWarning,0834.4,5.01,000.00,025.8,024.8,000.0,034.1,027.1,10.3,0000.0,0008.34,0005.79,0005.53
2023-10-30 21:50:00,SystemResetWarning,0834.4,5.01,000.00,025.8,024.8,000.0,034.1,027.1,10.3,0000.0,0008.32,0005.81,0005.55
2023-10-30 21:51:00,SystemResetWarning,0834.4,4.99,000.00,025.8,024.8,000.0,034.1,027.1,10.5,0000.0,0008.26,0005.81,0005.56
2023-10-30 21:52:00,SystemResetWarning,0834.5,4.99,000.00,025.8,024.8,000.0,034.1,027.1,10.5,0000.0,0008.24,0005.81,0005.57
2023-10-30 21:53:00,SystemResetWarning,0834.5,5.02,000.00,025.8,024.8,000.0,034.1,027.1,10.5,-000.0,0008.20,0005.81,0005.58
2023-10-30 21:54:00,SystemResetWarning,0834.5,4.99,000.00,025.8,024.8,000.0,034.1,027.0,10.5,-001.1,0008.04,0005.79,0005.59
2023-10-30 21:55:00,SystemResetWarning,0834.5,4.99,000.00,025.7,024.8,000.0,034.1,027.0,10.3,-001.6,0008.01,0005.78,0005.60
2023-10-30 21:56:00,SystemResetWarning,0834.5,5.01,000.00,025.7,024.8,000.0,034.1,027.0,10.3,-000.9,0008.48,0005.80,0005.61
2023-10-30 21:57:00,SystemResetWarning,0834.5,5.01,000.00,025.7,024.8,000.0,034.1,027.1,10.3,-000.4,0009.61,0005.84,0005.61
2023-10-30 21:58:00,SystemResetWarning,0834.5,4.99,000.00,025.7,024.7,000.0,034.1,027.1,10.5,-000.8,0009.87,0005.85,0005.62
2023-10-30 21:59:00,SystemResetWarning,0834.5,4.99,000.00,025.7,024.7,000.0,034.1,027.0,10.3,-000.5,0010.38,0005.86,0005.64
